Location: Schommer Observatory
(40.5200°N, 74.4500°W)
Time: 10:46:46
(UTC-04:00)

X-37B - Pass Details

Date: 11 October 2017
Orbit: 259 x 286 km, 43.2° (Epoch: 06 October)

Event Time Altitude Azimuth Distance (km) Brightness Sun altitude
Exits shadow 05:40:20 19° 164° (SSE) 684 3.4 -16.8°
Maximum altitude 05:40:41 20° 150° (SSE) 666 3.5 -16.8°
Drops below altitude 10° 05:42:29 10° 98° (E) 1,031 5.5 -16.4°
Sets 05:44:38 0° 80° (E) 1,840 7.3 -16.0°
